星链-2099 (STARLINK-2099 )

导读 | 星芒AI

STARLINK-2099 是 SpaceX 星链计划中的一颗低轨通信卫星,属于第二代星链卫星群。该卫星采用先进推进系统和激光通信技术,旨在提升全球互联网覆盖与传输速度。它运行在约 550 公里高度的近地轨道,具备高带宽和低延迟特性,服务于偏远地区及商业用户。作为星链网络的重要组成部分,STARLINK-2099 有助于增强卫星群的冗余性和通信稳定性,推动全球宽带接入的普及。

基本信息
目录编号:
47379
目录名称:
STARLINK-2099
国际标识:
2021-005AG
轨道中心:
EARTH
卫星名称:
星链-2099
卫星全名:
星链-2099 (STARLINK-2099 )
卫星状态:
在轨 (已飞行1791 天)
发射日期:
2021-01-20 UTC
国别 :
美国 (US)
星等 :
--
轨道信息
数据来源 国际轨道数据
星历时间: 2025-12-16T04:15:06+0800
20小时前
查看轨道信息
半长轴: 6925.298km
偏心率: 0.0001212
轨道倾角: 53.057°
近地点辐角 98.343°
升交点赤经 38.008°
平近点角 261.770°
近地点: 546.323km
远地点: 548.003km
周期: 95.591分钟
每日圈数: 15.064167
详细信息
固有亮度:
5
最大亮度:
2.5
卫星平台:
Starlink V1.0
覆盖范围:
全球
运营商:
太空探索技术公司
运营商所在国:
美国
制造商(研发单位):
太空探索技术公司
制造商所在国:
美国
使用方式:
暂无
卫星简介
星链(Starlink)计划是由太空探索技术公司(SpaceX)提出的一个巨型低轨卫星互联网星座项目,计划在2019年至2024年间在太空搭建由约1.2万颗卫星组成的“星链”网络,其中1584颗将部署在地球上空550千米处的近地轨道,并从2020年开始工作。该卫星仍在工作。
2D轨道图
3D轨道图
轨道高度分析图
轨道倾角分析图
轨道综合分析图
查看轨道综合分析图